Location: Unspecified
(0.0000°N, 0.0000°E)
Time: 16:13:11
(UTC+01:00)

Ariane H10 - Visible Passes

Search period start: 13 February 2016 00:00
Search period end: 23 February 2016 00:00
Orbit: 276 x 24170 km, 3.7° (Epoch: 11 February)

Date Brightness Start Highest point End Pass type
(mag) Time Alt. Az. Time Alt. Az. Time Alt. Az.
13 Feb 7.6 01:12:04 22° E 01:12:04 22° E 01:29:19 10° E visible
14 Feb 6.9 05:15:21 36° W 05:42:10 84° N 11:17:02 10° E visible
15 Feb 7.0 02:17:45 49° E 02:17:45 49° E 07:10:11 10° E visible
16 Feb 7.4 06:20:53 13° W 10:25:06 88° NNE 12:30:18 10° E visible
16 Feb 2.8 19:44:59 10° W 19:51:29 52° S 19:53:39 11° ESE visible
17 Feb 6.6 03:23:10 81° NE 03:23:10 81° NE 08:59:28 10° E visible
18 Feb 4.2 20:57:30 10° WSW 20:58:38 19° WSW 20:58:38 19° WSW visible
19 Feb 6.6 04:28:20 57° WNW 04:40:06 83° N 10:22:14 10° E visible
20 Feb 7.5 01:30:28 30° E 01:30:28 30° E 02:10:13 10° E visible
21 Feb 7.1 05:33:14 29° W 06:13:42 85° N 11:37:13 10° E visible
22 Feb 6.9 02:35:15 59° ENE 02:35:15 59° ENE 07:49:37 10° E visible
